STARLINK-31971, 59934

Orbit data source: Space-Track

STARLINK-31971, 59934 is a payload satellite owned by SpaceX/Seattle (US) in LEO that was launched on Sat, 01 Jun 2024 UTC via an FALCON 9 launch vehicle from the Air Force Eastern Test Range (AFETR). Payload-class satellites include a variety of spacecraft equipped with specific instruments for various scientific and technological missions. These include communications satellites like Starlink; space stations such as the ISS; scientific satellites like the Hubble; Earth observation satellites from companies like Planet Labs, Umbra, and HawkEye 360; GPS; miniature CubeSats for education and research; and military/defense satellites.

Loading next visibility...
Identifier
59934, 2024-106N
Orbit
LEO
Country
Flag of USUS
Related business
Manufacturer
SpaceX/Seattle
Mission
Operational Commercial Communications
Bus & Motor
STARLINK V2M, Unknown motor
Mass
730 kg wet, ~700 kg dry
Launch date (UTC)
2024-06-01 (2 years ago)
Launch vehicle
FALCON 9
Launch site
Air Force Eastern Test Range (AFETR)
Object type
Payload
Rocket body
Debris
Shape & HBR
Box + 2 Pan, 17.7 m
Radar Cross Section
33.884 m², Large (>1 m²)

Expand to show TLE details & history
Last TLE update: 1 day ago

TLE from 1 day ago
0 STARLINK-31971
1 59934U 24106N   26127.05107643 -.00000206  00000-0  20466-5 0  9999
2 59934  43.0048 359.7321 0001703 264.4685  95.5973 15.27572590109367
Epoch: 2026-05-07T01:13Z
TLE epoch observation values (Epoch: 2026-05-07T01:13:33.003Z)
Latitude
0.00001°
Longitude
116.44183°
Altitude
482.961 km
Speed
7.626 km/s
True Right ascension
23h 58m 55s
True Declination
0° 00' 00"
Sunlit
Object was in daylight at epoch
Visualization orbit readout
Latitude
Unknown
Longitude
Unknown
Altitude
Unknown
Speed
Unknown
Apparent Right ascension
Unknown
Apparent Declination
Unknown
Sunlit
N/A
Visualization observer readout
Local Sidereal Time
11:08:24
Azimuth
Unknown
Elevation
Unknown
Doppler factor
Unknown
Orbital elements
Apogee altitude
486.184 km
Perigee altitude
483.847 km
Semi-major axis
6,863.153 km
Eccentricity
0.00017
Inclination
43.0048°
RAAN
359.7321°
Arg. of periapsis
264.4685°
True anomaly
95.61672°
Mean anomaly
95.5973°
Eccentric anomaly
95.60701°
Mean motion
3.81731 °/min
Orbital period
94.31 mins
BSTAR
0.0000020466
Loading maneuver chart data...
Computing Atmospheric mass density...
Loading historical data...
Loading historical data...
Loading historical data...
Loading historical data...
Loading historical data...
Loading historical data...
Loading historical data...

Documentation

Showing up to 5 results
|